TimeMDT,TemperatureF,Dew PointF,Humidity,Sea Level PressureIn,VisibilityMPH,Wind Direction,Wind SpeedMPH,Gust SpeedMPH,PrecipitationIn,Events,Conditions,WindDirDegrees,DateUTC
12:16 AM,50.0,42.8,76,30.27,10.0,Calm,Calm,-,N/A,,Clear,0,2013-08-08 06:16:00
12:36 AM,46.4,39.2,76,30.27,10.0,Calm,Calm,-,N/A,,Clear,0,2013-08-08 06:36:00
12:56 AM,46.4,39.2,76,30.27,10.0,Calm,Calm,-,N/A,,Clear,0,2013-08-08 06:56:00
1:16 AM,46.4,39.2,76,30.27,10.0,Calm,Calm,-,N/A,,Clear,0,2013-08-08 07:16:00
1:36 AM,44.6,37.4,76,30.27,10.0,Calm,Calm,-,N/A,,Clear,0,2013-08-08 07:36:00
1:55 AM,46.4,41.0,81,30.27,10.0,Calm,Calm,-,N/A,,Clear,0,2013-08-08 07:55:00
2:16 AM,44.6,37.4,76,30.27,10.0,Calm,Calm,-,N/A,,Clear,0,2013-08-08 08:16:00
2:36 AM,44.6,37.4,76,30.27,10.0,Calm,Calm,-,N/A,,Clear,0,2013-08-08 08:36:00
2:55 AM,44.6,37.4,76,30.26,10.0,Calm,Calm,-,N/A,,Clear,0,2013-08-08 08:55:00
3:16 AM,42.8,37.4,81,30.26,10.0,Calm,Calm,-,N/A,,Clear,0,2013-08-08 09:16:00
3:35 AM,42.8,37.4,81,30.26,10.0,Calm,Calm,-,N/A,,Clear,0,2013-08-08 09:35:00
3:56 AM,41.0,37.4,87,30.26,10.0,Calm,Calm,-,N/A,,Clear,0,2013-08-08 09:56:00
4:16 AM,41.0,35.6,81,30.27,10.0,Calm,Calm,-,N/A,,Clear,0,2013-08-08 10:16:00
4:36 AM,41.0,37.4,87,30.27,10.0,Calm,Calm,-,N/A,,Clear,0,2013-08-08 10:36:00
4:56 AM,39.2,35.6,87,30.27,10.0,Calm,Calm,-,N/A,,Clear,0,2013-08-08 10:56:00
5:16 AM,41.0,35.6,81,30.28,10.0,East,3.5,-,N/A,,Clear,90,2013-08-08 11:16:00
5:36 AM,41.0,37.4,87,30.28,10.0,Calm,Calm,-,N/A,,Clear,0,2013-08-08 11:36:00
5:55 AM,41.0,37.4,87,30.29,10.0,Calm,Calm,-,N/A,,Clear,0,2013-08-08 11:55:00
6:16 AM,41.0,37.4,87,30.29,10.0,Calm,Calm,-,N/A,,Clear,0,2013-08-08 12:16:00
6:36 AM,41.0,37.4,87,30.30,10.0,Calm,Calm,-,N/A,,Scattered Clouds,0,2013-08-08 12:36:00
6:56 AM,42.8,37.4,81,30.30,10.0,Calm,Calm,-,N/A,,Scattered Clouds,0,2013-08-08 12:56:00
7:15 AM,42.8,37.4,81,30.31,10.0,Calm,Calm,-,N/A,,Scattered Clouds,0,2013-08-08 13:15:00
7:36 AM,44.6,39.2,81,30.32,10.0,Calm,Calm,-,N/A,,Scattered Clouds,0,2013-08-08 13:36:00
7:55 AM,46.4,41.0,81,30.31,10.0,Calm,Calm,-,N/A,,Scattered Clouds,0,2013-08-08 13:55:00
8:16 AM,46.4,41.0,81,30.31,10.0,Calm,Calm,-,N/A,,Clear,0,2013-08-08 14:16:00
8:36 AM,50.0,41.0,71,30.31,10.0,Calm,Calm,-,N/A,,Scattered Clouds,0,2013-08-08 14:36:00
8:56 AM,50.0,39.2,66,30.32,10.0,Calm,Calm,-,N/A,,Scattered Clouds,0,2013-08-08 14:56:00
9:16 AM,51.8,41.0,67,30.32,10.0,Calm,Calm,-,N/A,,Clear,0,2013-08-08 15:16:00
9:36 AM,51.8,41.0,67,30.31,10.0,Calm,Calm,-,N/A,,Clear,0,2013-08-08 15:36:00
9:56 AM,51.8,41.0,67,30.31,10.0,Calm,Calm,-,N/A,,Clear,0,2013-08-08 15:56:00
10:16 AM,53.6,42.8,67,30.31,10.0,Calm,Calm,-,N/A,,Clear,0,2013-08-08 16:16:00
10:36 AM,53.6,41.0,62,30.31,10.0,Calm,Calm,-,N/A,,Clear,0,2013-08-08 16:36:00
10:56 AM,55.4,41.0,58,30.30,10.0,Calm,Calm,-,N/A,,Clear,0,2013-08-08 16:56:00
11:16 AM,59.0,41.0,51,30.30,10.0,Calm,Calm,-,N/A,,Clear,0,2013-08-08 17:16:00
11:36 AM,59.0,39.2,48,30.29,10.0,Calm,Calm,-,N/A,,Clear,0,2013-08-08 17:36:00
11:56 AM,60.8,41.0,48,30.29,10.0,Calm,Calm,-,N/A,,Clear,0,2013-08-08 17:56:00
12:16 PM,62.6,39.2,42,30.28,10.0,Calm,Calm,-,N/A,,Scattered Clouds,0,2013-08-08 18:16:00
12:35 PM,64.4,41.0,42,30.27,10.0,Calm,Calm,-,N/A,,Clear,0,2013-08-08 18:35:00
12:56 PM,69.8,41.0,35,30.26,10.0,Calm,Calm,-,N/A,,Clear,0,2013-08-08 18:56:00
1:15 PM,69.8,37.4,31,30.25,10.0,SW,3.5,-,N/A,,Clear,230,2013-08-08 19:15:00
1:36 PM,69.8,37.4,31,30.25,10.0,Calm,Calm,-,N/A,,Clear,0,2013-08-08 19:36:00
1:56 PM,69.8,37.4,31,30.25,10.0,Calm,Calm,-,N/A,,Clear,0,2013-08-08 19:56:00
2:16 PM,71.6,37.4,29,30.25,10.0,Calm,Calm,-,N/A,,Clear,0,2013-08-08 20:16:00
2:36 PM,71.6,35.6,27,30.26,10.0,SSE,8.1,-,N/A,,Scattered Clouds,150,2013-08-08 20:36:00
2:56 PM,69.8,35.6,28,30.27,10.0,SSW,15.0,18.4,N/A,,Mostly Cloudy,200,2013-08-08 20:56:00
3:16 PM,60.8,41.0,48,30.29,10.0,East,19.6,26.5,0.01,Rain,Light Rain,90,2013-08-08 21:16:00
3:32 PM,55.4,46.4,72,30.31,7.0,East,13.8,21.9,0.02,Rain,Light Rain,90,2013-08-08 21:32:00
3:53 PM,59.0,46.4,63,30.31,10.0,ESE,5.8,-,0.02,,Overcast,110,2013-08-08 21:53:00
4:11 PM,60.8,44.6,55,30.31,10.0,East,8.1,-,N/A,,Overcast,80,2013-08-08 22:11:00
4:36 PM,60.8,37.4,42,30.32,10.0,NNE,17.3,25.3,N/A,Thunderstorm,Overcast,30,2013-08-08 22:36:00
4:50 PM,60.8,41.0,48,30.33,10.0,NNE,18.4,24.2,N/A,,Overcast,20,2013-08-08 22:50:00
5:08 PM,59.0,41.0,51,30.34,10.0,North,11.5,20.7,N/A,,Overcast,10,2013-08-08 23:08:00
5:36 PM,57.2,42.8,59,30.35,10.0,NW,10.4,-,N/A,,Mostly Cloudy,320,2013-08-08 23:36:00
5:56 PM,55.4,42.8,63,30.34,10.0,NNW,4.6,-,N/A,Thunderstorm,Thunderstorm,330,2013-08-08 23:56:00
6:15 PM,59.0,42.8,55,30.33,10.0,Calm,Calm,-,N/A,,Scattered Clouds,0,2013-08-09 00:15:00
6:35 PM,55.4,42.8,63,30.33,10.0,NW,4.6,-,N/A,,Mostly Cloudy,310,2013-08-09 00:35:00
6:56 PM,55.4,42.8,63,30.32,10.0,Calm,Calm,-,N/A,,Overcast,0,2013-08-09 00:56:00
7:15 PM,55.4,44.6,67,30.32,10.0,SSW,3.5,-,N/A,,Mostly Cloudy,200,2013-08-09 01:15:00
7:36 PM,55.4,44.6,67,30.32,10.0,Calm,Calm,-,N/A,,Overcast,0,2013-08-09 01:36:00
7:56 PM,55.4,44.6,67,30.32,10.0,Calm,Calm,-,N/A,,Overcast,0,2013-08-09 01:56:00
8:15 PM,55.4,42.8,63,30.32,10.0,Calm,Calm,-,N/A,,Mostly Cloudy,0,2013-08-09 02:15:00
8:36 PM,55.4,42.8,63,30.31,10.0,Calm,Calm,-,N/A,,Mostly Cloudy,0,2013-08-09 02:36:00
8:56 PM,51.8,44.6,76,30.31,10.0,SW,3.5,-,N/A,,Scattered Clouds,220,2013-08-09 02:56:00
9:16 PM,51.8,44.6,76,30.32,10.0,Calm,Calm,-,N/A,,Clear,0,2013-08-09 03:16:00
9:36 PM,50.0,44.6,82,30.34,10.0,Calm,Calm,-,N/A,,Clear,0,2013-08-09 03:36:00
9:56 PM,50.0,42.8,76,30.34,10.0,Calm,Calm,-,N/A,,Clear,0,2013-08-09 03:56:00
10:16 PM,50.0,42.8,76,30.34,10.0,Calm,Calm,-,N/A,,Clear,0,2013-08-09 04:16:00
10:36 PM,50.0,44.6,82,30.34,10.0,Calm,Calm,-,N/A,,Clear,0,2013-08-09 04:36:00
10:56 PM,50.0,44.6,82,30.34,10.0,Calm,Calm,-,N/A,,Clear,0,2013-08-09 04:56:00
11:16 PM,50.0,44.6,82,30.34,10.0,Calm,Calm,-,N/A,,Clear,0,2013-08-09 05:16:00
11:36 PM,46.4,42.8,87,30.34,10.0,Calm,Calm,-,N/A,,Scattered Clouds,0,2013-08-09 05:36:00
11:56 PM,44.6,41.0,87,30.34,10.0,ESE,3.5,-,N/A,,Clear,110,2013-08-09 05:56:00